Location: B?jaj?g
(11.7167°N, 92.6667°E)
Time: 10:51:45
(UTC+00:00)

Daily predictions for brighter satellites

Satellite Brightness Start Highest point End
(mag) Time Altitude Azimuth Time Altitude Azimuth Time Altitude Azimuth
GP-B 3.4 12:00:20 10° NNE 12:04:35 47° E 12:08:50 10° SSE
USA 116 4.0 12:01:22 10° NNE 12:05:12 53° ESE 12:09:32 10° S
NOSS 2-2 (D) 4.2 12:01:42 10° SW 12:05:46 51° WNW 12:09:14 10° N
Cosmos 1937 Rocket 3.6 12:04:33 10° SSW 12:09:51 86° WNW 12:15:07 10° NNE
Cosmos 1782 Rocket 3.8 12:06:11 10° SSE 12:10:21 45° E 12:14:32 10° NNE
Okean O Rocket 4.0 12:08:17 10° SSW 12:12:06 29° W 12:15:56 10° NW
Cosmos 1908 Rocket 3.9 12:08:16 10° S 12:12:34 72° W 12:16:53 10° N
ASTRO E2 4.1 12:09:24 10° NNW 12:12:41 25° NNE 12:15:59 10° E
Meteor 1-23 Rocket 4.1 12:08:37 10° N 12:14:08 72° E 12:19:40 10° SSE
ATLAS 3B CENTAUR R/B 4.3 12:07:07 10° WNW 12:16:20 79° NNE 12:37:30 10° ESE
Cosmos 1378 3.2 12:13:28 10° N 12:17:05 54° E 12:20:43 10° SSE
Cosmos 1975 2.8 12:13:06 10° S 12:17:10 81° E 12:21:14 10° N
CZ-4 R/B 2.2 12:13:45 10° SE 12:17:28 31° ENE 12:21:12 10° NNE
Cosmos 1066 Rocket 4.2 12:13:48 10° N 12:19:11 89° W 12:24:41 10° S
Cosmos 1271 Rocket 2.8 12:16:44 10° N 12:20:42 86° W 12:24:38 10° S
SWARM C 4.4 12:21:18 10° N 12:24:36 84° E 12:27:55 10° S
SWARM A 4.3 12:21:25 10° N 12:24:43 83° W 12:28:02 10° S
Intelsat 5-3 Rocket 3.7 12:25:08 10° NW 12:29:03 48° NNE 12:36:15 15° E
H-2A R/B 3.3 12:26:20 11° ESE 12:29:21 18° ENE 12:32:39 10° NNE
Delta 7925 Rocket 3.4 12:26:05 10° WNW 12:30:53 89° NNE 12:35:42 15° ESE
Delta 198 4.3 12:25:25 10° WNW 12:31:35 69° SSW 12:36:13 13° SE
SL-24 R/B 4.1 12:28:58 10° SSE 12:33:21 89° W 12:37:37 10° NNW
Cosmos 1844 4.5 12:31:00 10° SSE 12:35:53 29° ESE 12:40:44 10° NE
MOS 1 Rocket 3.0 12:32:21 10° NNE 12:36:35 63° E 12:40:49 10° S
Cosmos 1174 3.7 12:35:02 10° SSW 12:38:41 84° ESE 12:43:18 10° NNE
Iridium 4 Rocket 3.5 12:34:19 10° S 12:38:42 71° W 12:43:28 10° N
Cosmos 1464 Rocket 4.2 12:35:38 10° SSE 12:41:23 44° E 12:47:07 10° NNE
Sich 1 Rocket 3.5 12:42:50 10° S 12:47:14 79° E 12:51:42 10° N
TIMED 4.4 12:43:41 10° N 12:48:00 70° ENE 12:52:20 10° SSE
SL-16 R/B 2.5 12:43:09 10° NNW 12:48:46 69° WSW 12:54:22 10° S
Cosmos 1844 Rocket 2.7 12:43:24 10° S 12:48:47 53° ESE 12:54:10 10° NNE
CZ-2C R/B 3.1 12:43:49 10° NNE 12:49:00 39° E 12:54:11 10° S
Cosmos 158 Rocket 4.1 12:45:30 10° N 12:50:23 46° ENE 12:54:12 15° SE
CZ-2C R/B 3.1 12:46:03 10° SSE 12:50:46 49° ENE 12:55:44 10° N
Cosmos 1975 Rocket 3.7 12:49:01 10° NNE 12:52:50 31° E 12:52:52 31° E
Atlas Centaur 2 4.3 12:47:41 10° W 12:53:04 24° SW 12:57:37 10° SSE
NATO 3D Rocket 4.2 12:50:14 10° SW 12:54:53 33° SSE 12:56:14 28° SE
Cosmos 1842 3.3 12:51:23 10° N 12:55:08 51° E 12:57:31 21° SSE
Meteor 1-12 Rocket 4.3 12:50:23 10° S 12:56:20 69° E 13:02:14 10° NNE
Exosat Rocket 4.3 12:50:22 10° S 12:58:16 54° ESE 13:03:57 10° NNE
Tsikada Rocket 4.4 12:52:34 10° NNW 12:58:39 66° W 13:04:47 10° S
Cosmos 1932 4.5 12:57:51 10° N 13:03:59 55° ENE 13:07:06 28° SE
SJ-11-01 4.3 13:00:52 17° SSE 13:04:20 56° ENE 13:08:57 10° N
ARIANE 5 R/B 4.4 13:01:51 10° SW 13:04:24 19° S 13:05:23 18° SSE
Okean 2 Rocket 3.0 13:03:17 10° S 13:07:48 85° E 13:12:18 10° N
CSL-04 Debris 4.0 13:03:03 10° SSE 13:08:26 76° ENE 13:13:49 10° N
Cosmos 1891 Rocket 4.4 13:02:49 10° S 13:09:08 87° W 13:15:17 10° N
Ariane H10 4.2 13:04:58 10° WSW 13:09:42 52° SSE 22:30:08 10° ESE
Okean-O 4.1 13:05:47 10° SSW 13:09:52 37° W 13:13:58 10° NNW
Cosmos 2298 Rocket 4.3 13:06:58 10° SSW 13:12:15 71° WNW 13:17:33 10° N
ARIANE 5 DEB (SYLDA) 4.2 13:02:08 10° W 13:12:42 35° SSW 13:14:29 26° SSE
Ariane H10+ 4.1 13:11:48 10° SW 13:12:57 15° SSW 13:12:57 15° SSW
Cosmos 923 Rocket 4.2 13:08:59 10° NNW 13:14:08 70° WSW 13:19:18 10° S
Cosmos 1943 4.2 13:10:03 10° N 13:13:31 27° NE 13:13:31 27° NE
CSL-04 Rocket 3.5 13:13:05 10° SSE 13:18:25 89° WSW 13:23:49 10° NNW
Cosmos 1300 Rocket 4.0 13:17:48 10° SSW 13:22:05 60° W 13:26:24 10° N
Meteor 1-21 4.1 13:18:48 10° N 13:24:23 90° E 13:29:32 12° S
GPS 2-17 Rocket1 3.2 13:22:03 10° W 13:26:44 67° NNW 13:26:55 66° N
YAOGAN 1 4.3 13:22:55 10° SSW 13:26:46 32° W 13:30:37 10° NW
NOSS 3-4 (A) 3.1 13:21:59 10° SSW 13:27:54 71° ESE 13:28:49 60° ENE
NOSS 3-4 (C) 3.1 13:22:06 10° SSW 13:28:00 70° ESE 13:28:45 62° ENE
Cosmos 1603 3.9 13:28:38 10° N 13:33:07 53° NNE 13:33:07 53° NNE
Cosmos 2034 Rocket 4.1 13:31:37 10° S 13:37:57 77° W 13:44:19 10° N
ATLAS 2AS CENTAUR R/B 2.9 13:42:02 10° SSW 13:49:38 89° WNW 13:53:29 35° NNE
ARGOS 4.3 14:07:33 40° W 14:07:33 40° W 14:11:52 10° NNW
H-2A R/B 3.9 14:06:57 21° SW 14:08:30 25° W 14:12:30 10° NW
Intelsat 5-1 Rocket 4.3 14:24:00 10° W 14:35:33 48° WNW 14:35:33 48° WNW
H-10 deb 4.4 20:54:21 55° SSE 20:54:21 55° SSE 21:25:51 10° E
H-10 deb 4.4 20:54:20 55° SSE 20:54:20 55° SSE 21:25:51 10° E
Cosmos 2322 Rocket 2.7 21:29:11 55° ENE 21:29:11 55° ENE 21:34:00 10° NNE
H-2A R/B 3.6 21:32:03 10° SE 21:35:50 33° ENE 21:39:42 10° NNE
SL-16 R/B 2.9 21:37:47 44° N 21:37:47 44° N 21:41:33 10° NNE
Hubble Space Telescope 3.4 21:41:40 13° SE 21:41:40 13° SE 21:43:22 10° ESE
CZ-2C R/B 3.8 21:44:55 10° N 21:47:25 29° N 21:47:25 29° N
Cosmos 540 Rocket 4.4 21:46:27 16° S 21:50:13 46° ESE 21:55:08 10° NNE
Meteor 1-14 Rocket 4.1 21:45:04 10° N 21:50:35 80° E 21:56:07 10° S
Cosmos 44 Rocket 3.1 21:56:22 77° ESE 21:56:26 78° ESE 22:01:06 10° NNE
Landsat 5 3.5 22:00:49 10° S 22:05:15 85° WSW 22:09:46 10° NNW
Cosmos 1934 Rocket 3.9 22:00:34 10° NNW 22:06:26 53° W 22:12:23 10° SSW
Delta 142 4.5 22:04:33 39° SSW 22:06:39 60° SSE 22:11:39 10° ENE
PAYLOAD A 4.3 22:10:13 34° SSW 22:11:30 43° SSE 22:20:31 10° E
Cosmos 2208 Rocket 4.3 22:07:14 10° S 22:12:31 67° ESE 22:17:44 10° NNE
GEOS 3 Rocket 4.3 22:12:59 10° NE 22:18:12 56° ESE 22:23:18 10° SSW
Cosmos 1777 Rocket 4.1 22:15:16 12° NNW 22:19:54 50° WSW 22:24:54 10° S
IRIDIUM 104 4.2 22:15:09 10° N 22:20:20 72° W 22:25:31 10° S
Sakura Rocket 3.8 22:19:50 25° NNW 22:21:33 38° NNE 22:24:59 10° E
Cosmos 1000 Rocket 4.4 22:19:18 10° S 22:25:35 88° W 22:31:47 10° N
Cosmos 1238 Rocket 4.2 22:20:15 10° NNW 22:25:47 36° W 22:30:38 10° SSW
Cosmos 1500 3.1 22:22:14 10° NNW 22:25:59 60° W 22:29:43 10° S
CZ-4B R/B 3.0 22:23:53 10° SE 22:26:39 32° ENE 22:29:27 10° NNE
IUS-13 SRM-1 3.4 22:26:31 19° N 22:27:36 26° NE 22:31:38 10° E
BREEZE-M DEB (TANK) 3.4 22:28:25 31° NW 22:28:30 32° NW 22:33:07 10° NNE
Cosmos 1707 Rocket 4.0 22:28:51 36° W 22:28:51 36° W 22:32:43 10° NNW
Cosmos 1605 Rocket 4.0 22:22:45 10° NNW 22:28:58 57° W 22:35:12 10° S
Delta 202 4.0 22:26:36 29° WNW 22:29:00 49° N 22:34:16 10° ENE
IRIDIUM 114 4.3 22:24:22 10° NNW 22:29:27 55° W 22:34:32 10° SSW
Meteor 1-27 Rocket 4.0 22:24:41 10° SSW 22:30:18 47° W 22:35:58 10° N
Timation 1 Rocket 4.3 22:24:57 10° NNW 22:30:57 87° ENE 22:36:57 10° SSE
Cosmos 1666 3.5 22:28:18 10° N 22:31:58 51° E 22:35:37 10° SSE
USA 32 4.1 22:28:20 10° N 22:33:35 82° E 22:38:49 10° S
ADEOS 4.0 22:29:57 10° N 22:34:43 38° WNW 22:39:31 10° SW
Meteor 1-11 Rocket 4.2 22:29:52 10° N 22:35:29 65° E 22:40:59 10° SSE
GPS 2-15 Rocket1 4.4 22:34:24 18° NW 22:37:00 29° N 22:41:03 10° ENE
deb Chang Zheng 4 4.3 22:33:27 10° NNW 22:37:07 29° WNW 22:37:42 28° W
Cosmos 1814 Rocket 4.0 22:35:46 10° SSW 22:40:47 57° WNW 22:45:51 10° N
Palapa 6 Rocket 4.4 22:38:03 20° WNW 22:43:45 73° SSW 22:51:49 10° ESE
CZ-3 Stage 3 4.3 22:42:38 22° WSW 22:44:40 38° SSW 22:53:37 10° SE
SAR-Lupe-4 4.3 22:41:13 10° SSE 22:44:42 55° ENE 22:48:12 10° N
CZ-4B R/B 2.4 22:41:12 10° N 22:44:46 84° WNW 22:48:21 10° SSW
Okean 1 4.0 22:40:53 10° S 22:44:50 57° E 22:48:48 10° NNE
CZ-4B R/B 4.4 22:40:50 10° N 22:45:02 44° WNW 22:49:17 10° SSW
Meteor 2-20 4.4 22:38:58 10° S 22:45:07 76° W 22:51:15 10° N
Chandra Rocket (1) 4.2 22:35:32 10° WNW 22:45:35 33° N 22:49:25 10° ENE
Cosmos 841 Rocket 4.0 22:42:24 11° SW 22:46:55 35° WNW 22:51:38 10° N
Shenzhou-11 Module 0.9 22:48:25 42° WNW 22:48:55 66° SW 22:51:00 10° SE
Orbus 21S 4.4 22:38:05 10° WNW 22:53:44 42° N 22:57:13 10° ENE
Sylda 5 2.9 22:54:18 15° WSW 22:56:59 49° S 23:03:27 10° E
SAR-Lupe-1 4.0 22:53:28 10° SSE 22:57:01 87° ENE 23:00:34 10° N
Cosmos 2360 Rocket 2.9 22:52:04 10° SW 22:57:05 33° WNW 23:02:08 10° N
ALOS 3.3 22:56:59 10° NNW 23:00:47 25° WNW 23:04:34 10° SW
ARIANE 5 R/B 4.4 22:44:46 15° W 23:02:24 55° SSW 23:06:38 10° ESE
Cosmos 1862 Rocket 4.3 22:58:31 10° SSW 23:02:28 32° W 23:06:25 10° NNW
Cosmos 2100 Rocket 4.0 22:57:04 10° N 23:03:26 85° W 23:09:46 10° S
Spot 2 3.8 22:59:26 10° N 23:03:26 85° WNW 23:07:30 10° SSW
Cosmos 1802 Rocket 4.4 22:59:15 10° N 23:05:28 70° E 23:11:46 10° S
Cosmos 1733 Rocket 3.2 23:01:45 10° N 23:06:04 79° E 23:10:21 10° S
Cosmos 2123 Rocket 4.0 23:01:15 10° SSW 23:07:22 64° W 23:13:31 10° N
Cosmos 1536 3.0 23:09:54 10° NNW 23:13:49 50° W 23:17:44 10° SSW
ARIANE 5 R/B 4.0 23:10:57 10° WSW 23:14:26 31° S 23:19:11 10° ESE
Cosmos 1437 Rocket 3.4 23:13:19 10° SSW 23:16:40 30° W 23:20:01 10° NNW
Cosmos 1689 Rocket 1.9 23:15:31 10° S 23:18:26 81° W 23:21:20 10° NNW
Meteor 2-4 Rocket 4.4 23:17:24 10° S 23:23:00 64° E 23:28:28 10° NNE
Ariane H10+ 3.9 23:26:09 10° W 23:38:19 33° SSW 23:41:43 10° SE
